Regional Weather Roundup
Issued by NWS Green Bay, WI

Home | Current Version | Previous Version | Graphics & Text | Print | Product List | Glossary Off
Versions: 1 2 3 4 5 6 7 8 9 10 11 12 13 14 15 16 17 18 19 20 21 22 23 24 25 26 27 28 29 30 31 32 33 34 35 36 37 38 39 40 41 42 43 44 45 46 47 48 49 50

000
ASUS43 KGRB 231111
RWRGRB

NORTH-CENTRAL AND NORTHEAST WISCONSIN REGIONAL WEATHER ROUNDUP
NATIONAL WEATHER SERVICE GREEN BAY WI
600 AM CDT SUN APR 23 2017

WIZ005-009-010>012-018-019-231200-
NORTH CENTRAL WISCONSIN

CITY           SKY/WX    TMP DP  RH WIND       PRES   REMARKS
IRONWOOD       LGT RAIN  36  35  96 N6        30.14R
MANITOWISH WTR CLOUDY    40  40 100 N9        30.08R
ARBOR VITAE    CLOUDY    43  38  85 NE6       30.06R
EAGLE RIVER    CLOUDY    42  36  80 N9        30.06S
LAND O LAKES   CLOUDY    41  38  89 N9        30.09R
RHINELANDER    MOCLDY    45  37  73 VRB5      30.06R
PHILLIPS       CLOUDY    42  38  85 N7        30.07R
ANTIGO         PTCLDY    40  33  75 CALM      30.03F
TOMAHAWK       PTCLDY    42  34  73 N5        30.06R
MERRILL        CLOUDY    40  34  78 CALM      30.05R
$$

WIZ013-073-231200-
NORTHEAST WISCONSIN

CITY           SKY/WX    TMP DP  RH WIND       PRES   REMARKS
IRON MOUNTAIN  CLOUDY    42  35  76 N8        30.05R
MARINETTE      PTCLDY    43  33  68 CALM      30.06R
OCONTO         CLEAR     46  31  55 SW6       30.04S
$$

WIZ017-030-035>037-045-231200-
CENTRAL WISCONSIN

CITY           SKY/WX    TMP DP  RH WIND       PRES   REMARKS
MEDFORD        CLOUDY    43  35  71 CALM      30.05R
WAUSAU         PTCLDY    48  32  53 VRB6      30.03S
MOSINEE        MOCLDY    43  34  70 SW7       30.05F
MARSHFIELD     CLOUDY    43  31  62 SW7       30.04F
WISC RAPIDS    CLEAR     41  34  76 SW6       30.07F
STEVENS POINT  CLOUDY    41  30  65 S5        30.06F
WAUPACA        CLOUDY    45  31  59 CALM      30.07S
SHAWANO        PTCLDY    44  32  63 CALM      30.06R
CLINTONVILLE   CLOUDY    43  32  65 SW5       30.05F
WAUTOMA        CLEAR     32  29  88 CALM      30.09S
$$

WIZ038-039-048-051-231200-
FOX VALLEY

CITY           SKY/WX    TMP DP  RH WIND       PRES   REMARKS
NWS GREEN BAY  CLEAR     45  35  68 SW6       30.06S
APPLETON       MOCLDY    46  28  49 SW12      30.06S
OSHKOSH        CLEAR     48  30  49 W5        30.08R
FOND DU LAC    CLEAR     46  31  55 SW9       30.09S
$$

WIZ022-050-052-231200-
EAST CENTRAL WISCONSIN

CITY           SKY/WX    TMP DP  RH WIND       PRES   REMARKS
EPHRAIM        FAIR      44  37  74 N8        30.05R
WASHINGTON ISL CLOUDY    40  37  87 NE12      30.05R
STURGEON BAY   CLEAR     50  34  54 SW9       30.05R
MANITOWOC      CLEAR     48  29  47 W7        30.07S
SHEBOYGAN      CLEAR     41  30  65 SW7       30.09R
$$

LMZ563-521-522-541>543-231200-
LAKESHORE

STATION/POSITION TIME  TEMP    WIND        PRES    VSBY  WAVE
                       AIR SEA DIR/SP/G                  HT/PER
                 (UTC) (F)     (DEG/KT/KT) (MB)    (MI)  (FT/S)
SHEBOYGAN LKSHOR 1100   48     250/ 10/ 11 1018.8R
KEWAUNEE LKSHORE 1048   47     300/  3/  8 1017.2R
NORTHPORT PIER   1040   42      20/  6/  8 1017.6R
N MID LAKE BUOY  1050   41 37  360/ 10/ 12 1018.8R         2/ 4
SISTER BAY LKSHO 0951   42     300/  8/  8   N/A
CHAMBERS ISLAND  1040   42      10/  7/  7 1017.3R
MENOMINEE LKSHOR 1048   45      10/  9/ 11 1016.6R
$$




USA.gov is the U.S. government's official web portal to all federal, state and local government web resources and services.